Tracking 25709 objects as of 23-May-2022
HD Live streaming from Space Station
objects crossing your sky now

BREEZE-M DEB

Track BREEZE-M DEB now!


NORAD ID: 41321
Int'l Code: 2012-026H
Perigee: 10,423.9 km
Apogee: 34,561.9 km
Inclination: 11.0 °
Period: 813.4 minutes
Semi major axis: 28863 km
RCS: Unknown
Launch date: May 17, 2012
Source: Commonwealth of Independent States (former USSR) (CIS)
Launch site: TYURATAM MISSILE AND SPACE COMPLEX (TTMTR)

Note: This is SATELLITE DEBRIS
aabbcc
Your satellite tracking list
Your tracking list is empty




NASA's NSSDC Master Catalog

Two Line Element Set (TLE):
1 41321U 12026H   22142.42681038 -.00000118  00000-0  00000-0 0  9996
2 41321  11.0285 264.8249 4181341 172.6810 196.2780  1.77039388 41400
Source of the keplerian elements: AFSPC